This is the latest recevied weather packets stored in our database for station/object OZ1IEP-5. If no packets are shown the sender has not sent any weather packets the latest 10 day(s).
| Time | Temp. | Humidity | Pressure | Rain* | Wind** | Luminosity | Snow |
|---|---|---|---|---|---|---|---|
| 1787919006 | 16.67° C | 86% | 1006.6 hPa | 0.51 mm | - | 77 W/m² | - |
| 1787918408 | 17.22° C | 85% | 1006.7 hPa | 0.25 mm | - | 39 W/m² | - |
| 1787917806 | 17.78° C | 83% | 1007.2 hPa | 0 mm | - | 30 W/m² | - |
| 1787917206 | 17.78° C | 81% | 1007.2 hPa | 0 mm | - | 30 W/m² | - |
| 1787916609 | 18.33° C | 80% | 1006.8 hPa | 0 mm | - | 63 W/m² | - |
| 1787916006 | 18.33° C | 79% | 1007.2 hPa | 0 mm | - | 98 W/m² | - |
| 1787915405 | 18.33° C | 79% | 1007.2 hPa | 0 mm | - | 190 W/m² | - |
| 1787914808 | 18.33° C | 79% | 1007.2 hPa | 0 mm | - | 241 W/m² | - |
| 1787914205 | 18.33° C | 79% | 1007.5 hPa | 0.25 mm | - | 141 W/m² | - |
| 1787913604 | 17.78° C | 80% | 1007.8 hPa | 0.51 mm | - | 100 W/m² | - |
| 1787913008 | 17.78° C | 80% | 1007.4 hPa | 0.51 mm | - | 104 W/m² | - |
| 1787912405 | 17.78° C | 81% | 1007 hPa | 0.51 mm | - | 93 W/m² | - |
| 1787911805 | 17.22° C | 82% | 1006.7 hPa | 0.51 mm | - | 88 W/m² | - |
| 1787911208 | 17.22° C | 82% | 1006.2 hPa | 0.51 mm | - | 62 W/m² | - |
| 1787910605 | 17.78° C | 80% | 1006.4 hPa | 0.51 mm | - | 53 W/m² | - |
| 1787910005 | 17.78° C | 78% | 1006.5 hPa | 0.25 mm | - | 56 W/m² | - |
| 1787909408 | 18.33° C | 78% | 1006.6 hPa | 0.25 mm | - | 86 W/m² | - |
| 1787908806 | 18.33° C | 78% | 1006.7 hPa | 0.25 mm | - | 102 W/m² | - |
| 1787908205 | 18.33° C | 78% | 1007.2 hPa | 0 mm | - | 81 W/m² | - |
| 1787907608 | 18.33° C | 75% | 1007.2 hPa | 0 mm | - | 63 W/m² | - |
| 1787907006 | 18.89° C | 73% | 1007.2 hPa | 0 mm | - | 72 W/m² | - |
| 1787906406 | 19.44° C | 70% | 1007.3 hPa | 0 mm | - | 79 W/m² | - |
| 1787905808 | 19.44° C | 69% | 1007.6 hPa | 0 mm | - | 62 W/m² | - |
| 1787905205 | 19.44° C | 68% | 1007.7 hPa | 0 mm | - | 65 W/m² | - |
| 1787904605 | 19.44° C | 68% | 1007.8 hPa | 0 mm | - | 65 W/m² | - |
* Rain latest hour (hover to see other rain measurements)
** Current wind speed in m/s (hover to see current wind gust speed)